This is the latest recevied weather packets stored in our database for station/object KQ4KX. If no packets are shown the sender has not sent any weather packets the latest 10 day(s).
| Time | Temp. | Humidity | Pressure | Rain* | Wind** | Luminosity | Snow |
|---|---|---|---|---|---|---|---|
| 1788107695 | 31.67° C | 77% | 1018.3 hPa | 0 mm | - | - | - |
| 1788107364 | 31.67° C | 76% | 1018.3 hPa | 0 mm | - | - | - |
| 1788107035 | 31.67° C | 77% | 1018.3 hPa | 0 mm | - | - | - |
| 1788106735 | 31.11° C | 82% | 1018.2 hPa | 0 mm | - | - | - |
| 1788106405 | 31.11° C | 79% | 1018.3 hPa | 0 mm | - | - | - |
| 1788106105 | 31.11° C | 81% | 1018.3 hPa | 0 mm | - | - | - |
| 1788105805 | 31.11° C | 81% | 1018.4 hPa | 0 mm | - | - | - |
| 1788105702 | 31.11° C | 79% | 1018.5 hPa | 0 mm | - | - | - |
| 1788105505 | 31.11° C | 79% | 1018.5 hPa | 0 mm | - | - | - |
| 1788105176 | 31.11° C | 80% | 1018.5 hPa | 0 mm | - | - | - |
| 1788105105 | 31.11° C | 79% | 1018.5 hPa | 0 mm | - | - | - |
| 1788104875 | 31.11° C | 79% | 1018.5 hPa | 0 mm | - | - | - |
| 1788104214 | 31.11° C | 81% | 1018.6 hPa | 0 mm | - | - | - |
| 1788103555 | 30.56° C | 83% | 1018.8 hPa | 0 mm | - | - | - |
| 1788102955 | 30.56° C | 85% | 1018.8 hPa | 0 mm | - | - | - |
| 1788102325 | 30° C | 89% | 1018.9 hPa | 0 mm | - | - | - |
| 1788101995 | 29.44° C | 89% | 1019 hPa | 0 mm | - | - | - |
| 1788101665 | 29.44° C | 89% | 1019 hPa | 0 mm | - | - | - |
| 1788101365 | 28.89° C | 91% | 1018.9 hPa | 0 mm | - | - | - |
| 1788101036 | 28.33° C | 93% | 1018.9 hPa | 0 mm | - | - | - |
| 1788100705 | 27.78° C | 93% | 1018.9 hPa | 0 mm | - | - | - |
| 1788100629 | 27.78° C | 94% | 1018.9 hPa | 0 mm | - | - | - |
| 1788100405 | 27.78° C | 94% | 1018.9 hPa | 0 mm | - | - | - |
| 1788099445 | 27.22° C | 95% | 1019 hPa | 0 mm | - | - | - |
| 1788099060 | 26.67° C | 97% | 1019 hPa | 0 mm | - | - | - |
* Rain latest hour (hover to see other rain measurements)
** Current wind speed in m/s (hover to see current wind gust speed)